NORTHEAST SUFFOLK  -  Air Quality Alert Air Quality Alert        NORTHERN NASSAU  -  Air Quality Alert Air Quality Alert        NORTHERN QUEENS  -  Air Quality Alert Air Quality Alert        NORTHWEST SUFFOLK  -  Air Quality Alert Air Quality Alert        SOUTHEAST SUFFOLK  -  Air Quality Alert Air Quality Alert        SOUTHERN NASSAU  -  Air Quality Alert Air Quality Alert        SOUTHERN QUEENS  -  Air Quality Alert Air Quality Alert        SOUTHWEST SUFFOLK  -  Air Quality Alert Air Quality Alert      

Active alerts

Northern Queens
  Details for Northern Queens Air Quality Alert
Southern Queens
  Details for Southern Queens Air Quality Alert
Northern Nassau
  Details for Northern Nassau Air Quality Alert
Southern Nassau
  Details for Southern Nassau Air Quality Alert
Northwest Suffolk
  Details for Northwest Suffolk Air Quality Alert
Southwest Suffolk
  Details for Southwest Suffolk Air Quality Alert
Northeast Suffolk
  Details for Northeast Suffolk Air Quality Alert
Southeast Suffolk
  Details for Southeast Suffolk Air Quality Alert


WXM80 ListenWXM80 Stop

You find our weather info also at:

UK Metoffice

WeatherCloud

Weather Underground

Northeastern Weather Network

AWEKAS

Citizen Weather Observer Program (CWOP)

HAMweather, WeatherForYou, PWS Weather


Weather Underground History page Text

Daily Summary for August 7, 2017 Units:  English    Metric   Both
« Previous Day
Next Day »
Daily Weekly Monthly Yearly Custom
  High: Low: Average:
Temperature: 71.7 °F 63.9 °F 66.7 °F
Dew Point: 67.5 °F 57.0 °F 63.1 °F
Humidity: 97 % 76 % 88 %
Wind Speed: 3.9 mph 0.0 mph 0.2 mph
Wind Gust: 8.1 mph - -
Wind:- - South
Pressure: 30.07 in 29.85 in -
Precipitation: 0.01 in    
Historical Graphs
 
 
Tabular Data for August 7, 2017
Time Temperature Dew Point Pressure Wind Wind Speed Wind Gust Humidity Rainfall Rate (Hourly)
00:03 65.0 °F 57.2 °F 30.06 in Calm   1.2 mph 76 % 0.00 in
00:08 65.0 °F 57.2 °F 30.06 in SSW 0.1 mph 1.2 mph 76 % 0.00 in
00:13 64.9 °F 57.2 °F 30.06 in SSW 0.1 mph 3.0 mph 76 % 0.00 in
00:18 64.9 °F 57.2 °F 30.06 in SSW 0.1 mph 1.2 mph 76 % 0.00 in
00:23 64.9 °F 57.5 °F 30.06 in Calm     77 % 0.00 in
00:28 64.9 °F 57.9 °F 30.06 in Calm     78 % 0.00 in
00:29 64.9 °F 57.9 °F 30.06 in Calm     78 % 0.00 in
00:33 64.9 °F 57.9 °F 30.07 in Calm     78 % 0.00 in
00:39 64.8 °F 57.8 °F 30.07 in Calm     78 % 0.00 in
00:44 64.7 °F 57.7 °F 30.07 in Calm     78 % 0.00 in
00:49 64.7 °F 57.7 °F 30.07 in Calm     78 % 0.00 in
00:54 64.6 °F 57.6 °F 30.07 in Calm     78 % 0.00 in
00:59 64.5 °F 57.5 °F 30.07 in Calm     78 % 0.00 in
01:04 64.4 °F 57.4 °F 30.06 in Calm     78 % 0.00 in
01:09 64.2 °F 57.2 °F 30.06 in Calm     78 % 0.00 in
01:14 64.1 °F 57.1 °F 30.06 in Calm     78 % 0.00 in
01:19 64.0 °F 57.0 °F 30.06 in SW 1.0 mph 3.5 mph 78 % 0.00 in
01:24 64.0 °F 57.0 °F 30.06 in SW 0.2 mph 1.2 mph 78 % 0.00 in
01:29 63.9 °F 57.3 °F 30.06 in Calm   2.3 mph 79 % 0.00 in
01:39 63.9 °F 57.3 °F 30.06 in WSW 1.0 mph 3.5 mph 79 % 0.00 in
01:44 63.9 °F 57.3 °F 30.06 in WSW 0.4 mph 2.3 mph 79 % 0.00 in
01:49 63.9 °F 57.3 °F 30.06 in WSW 0.7 mph 2.3 mph 79 % 0.00 in
01:59 63.9 °F 57.3 °F 30.06 in WSW 2.2 mph 3.5 mph 79 % 0.00 in
02:04 64.0 °F 57.4 °F 30.06 in Calm   1.2 mph 79 % 0.00 in
02:09 64.1 °F 57.5 °F 30.06 in West 0.3 mph 3.5 mph 79 % 0.00 in
02:14 64.1 °F 57.5 °F 30.06 in West 0.8 mph 3.5 mph 79 % 0.00 in
02:20 64.2 °F 57.5 °F 30.06 in Calm   2.3 mph 79 % 0.00 in
02:25 64.3 °F 57.3 °F 30.06 in West 0.5 mph 2.3 mph 78 % 0.00 in
02:30 64.3 °F 57.6 °F 30.06 in West 0.1 mph 1.2 mph 79 % 0.00 in
02:35 64.4 °F 57.4 °F 30.06 in Calm     78 % 0.00 in
02:40 64.4 °F 57.4 °F 30.06 in Calm     78 % 0.00 in
02:45 64.4 °F 57.4 °F 30.06 in Calm     78 % 0.00 in
02:50 64.4 °F 57.4 °F 30.06 in West 0.7 mph 2.3 mph 78 % 0.00 in
02:55 64.4 °F 57.4 °F 30.05 in West 0.4 mph 2.3 mph 78 % 0.00 in
03:00 64.4 °F 57.7 °F 30.05 in West 0.5 mph 2.0 mph 79 % 0.00 in
03:05 64.5 °F 57.8 °F 30.05 in West 0.5 mph 1.2 mph 79 % 0.00 in
03:10 64.5 °F 57.8 °F 30.05 in West 1.6 mph 3.5 mph 79 % 0.00 in
03:15 64.6 °F 57.6 °F 30.05 in West 0.6 mph 2.3 mph 78 % 0.00 in
03:20 64.7 °F 57.7 °F 30.05 in West 1.0 mph 2.3 mph 78 % 0.00 in
03:25 64.7 °F 58.0 °F 30.05 in West 0.2 mph 1.2 mph 79 % 0.00 in
03:30 64.8 °F 58.1 °F 30.05 in West 0.1 mph   79 % 0.00 in
03:35 64.9 °F 58.2 °F 30.05 in Calm     79 % 0.00 in
03:41 64.9 °F 58.3 °F 30.05 in Calm   1.0 mph 79 % 0.00 in
03:46 65.0 °F 58.3 °F 30.05 in Calm   1.0 mph 79 % 0.00 in
03:51 65.0 °F 58.3 °F 30.04 in Calm     79 % 0.00 in
03:56 65.1 °F 58.4 °F 30.04 in Calm     79 % 0.00 in
04:01 65.0 °F 58.3 °F 30.04 in Calm     79 % 0.00 in
04:06 65.1 °F 58.8 °F 30.04 in Calm     80 % 0.00 in
04:11 65.1 °F 59.1 °F 30.05 in Calm     81 % 0.00 in
04:16 65.1 °F 58.8 °F 30.04 in Calm     80 % 0.00 in
04:21 65.1 °F 58.8 °F 30.04 in Calm     80 % 0.00 in
04:26 65.1 °F 58.8 °F 30.04 in Calm     80 % 0.00 in
04:31 65.1 °F 59.1 °F 30.04 in Calm     81 % 0.00 in
04:33 65.1 °F 59.1 °F 30.04 in Calm     81 % 0.00 in
04:38 65.1 °F 59.5 °F 30.04 in Calm     82 % 0.00 in
04:45 65.1 °F 59.1 °F 30.05 in Calm     81 % 0.00 in
04:50 65.1 °F 59.1 °F 30.04 in Calm     81 % 0.00 in
04:55 65.1 °F 59.1 °F 30.04 in Calm     81 % 0.00 in
05:00 65.0 °F 59.0 °F 30.04 in Calm     81 % 0.00 in
05:05 65.0 °F 59.0 °F 30.04 in West 1.2 mph 3.5 mph 81 % 0.00 in
05:10 64.9 °F 58.9 °F 30.05 in West 0.5 mph 2.3 mph 81 % 0.00 in
05:15 64.9 °F 58.9 °F 30.04 in Calm     81 % 0.00 in
05:20 64.9 °F 58.9 °F 30.05 in Calm     81 % 0.00 in
05:25 64.9 °F 58.9 °F 30.05 in Calm     81 % 0.00 in
05:30 64.9 °F 58.9 °F 30.05 in Calm     81 % 0.00 in
05:35 65.0 °F 59.0 °F 30.05 in Calm     81 % 0.00 in
05:40 65.0 °F 59.0 °F 30.05 in Calm     81 % 0.00 in
05:45 65.1 °F 59.1 °F 30.05 in Calm     81 % 0.00 in
05:50 65.1 °F 59.5 °F 30.05 in Calm     82 % 0.00 in
05:55 65.1 °F 59.5 °F 30.05 in Calm     82 % 0.00 in
06:00 65.2 °F 59.6 °F 30.05 in Calm     82 % 0.00 in
06:05 65.2 °F 59.6 °F 30.05 in Calm     82 % 0.00 in
06:10 65.2 °F 59.9 °F 30.05 in Calm     83 % 0.00 in
06:15 65.2 °F 59.9 °F 30.05 in Calm     83 % 0.00 in
06:20 65.3 °F 60.0 °F 30.05 in Calm     83 % 0.00 in
06:25 65.3 °F 60.0 °F 30.05 in Calm     83 % 0.00 in
06:31 65.3 °F 60.0 °F 30.05 in Calm     83 % 0.00 in
06:36 65.4 °F 60.4 °F 30.05 in Calm   1.0 mph 84 % 0.00 in
06:41 65.4 °F 60.4 °F 30.05 in Calm     84 % 0.00 in
06:46 65.5 °F 60.5 °F 30.05 in Calm     84 % 0.00 in
06:51 65.5 °F 60.6 °F 30.05 in Calm     84 % 0.00 in
06:56 65.6 °F 60.6 °F 30.05 in Calm     84 % 0.00 in
07:01 65.7 °F 61.1 °F 30.04 in Calm   1.2 mph 85 % 0.00 in
07:06 65.8 °F 61.2 °F 30.05 in Calm     85 % 0.00 in
07:11 65.8 °F 61.2 °F 30.05 in Calm     85 % 0.00 in
07:16 65.9 °F 61.6 °F 30.05 in Calm     86 % 0.00 in
07:21 66.0 °F 61.7 °F 30.06 in Calm     86 % 0.00 in
07:26 66.1 °F 61.5 °F 30.05 in West 0.3 mph 2.3 mph 85 % 0.00 in
07:31 66.2 °F 61.6 °F 30.06 in Calm   1.2 mph 85 % 0.00 in
07:36 66.3 °F 62.0 °F 30.05 in Calm     86 % 0.00 in
07:41 66.4 °F 62.1 °F 30.06 in Calm     86 % 0.00 in
07:46 66.5 °F 62.2 °F 30.05 in Calm     86 % 0.00 in
07:52 66.7 °F 62.4 °F 30.05 in Calm     86 % 0.00 in
07:57 66.8 °F 62.5 °F 30.05 in Calm   1.2 mph 86 % 0.00 in
08:07 67.1 °F 62.8 °F 30.05 in Calm     86 % 0.00 in
08:12 67.2 °F 62.9 °F 30.05 in Calm     86 % 0.00 in
08:14 67.4 °F 63.1 °F 30.05 in Calm     86 % 0.00 in
08:19 67.4 °F 63.1 °F 30.05 in Calm     86 % 0.00 in
08:24 67.6 °F 63.3 °F 30.05 in Calm     86 % 0.00 in
08:29 67.7 °F 63.0 °F 30.05 in Calm     85 % 0.00 in
08:34 67.8 °F 63.1 °F 30.05 in Calm     85 % 0.00 in
08:39 67.9 °F 63.2 °F 30.04 in Calm     85 % 0.00 in
08:44 68.0 °F 63.3 °F 30.04 in Calm     85 % 0.00 in
08:49 68.1 °F 63.4 °F 30.04 in Calm     85 % 0.00 in
08:54 68.2 °F 63.5 °F 30.04 in Calm     85 % 0.00 in
08:59 68.3 °F 63.6 °F 30.04 in Calm   1.2 mph 85 % 0.00 in
09:04 68.4 °F 63.7 °F 30.04 in Calm     85 % 0.00 in
09:10 68.5 °F 63.8 °F 30.05 in Calm     85 % 0.00 in
09:15 68.6 °F 63.9 °F 30.05 in Calm     85 % 0.00 in
09:20 68.6 °F 63.9 °F 30.05 in Calm     85 % 0.00 in
09:25 68.7 °F 64.0 °F 30.04 in Calm   1.2 mph 85 % 0.00 in
09:30 68.8 °F 64.4 °F 30.04 in Calm     86 % 0.00 in
09:35 68.8 °F 64.4 °F 30.04 in Calm     86 % 0.00 in
09:40 68.9 °F 64.5 °F 30.04 in Calm     86 % 0.00 in
09:45 68.9 °F 64.5 °F 30.04 in Calm     86 % 0.00 in
09:50 68.9 °F 64.5 °F 30.04 in Calm     86 % 0.00 in
09:55 69.0 °F 64.6 °F 30.04 in Calm     86 % 0.00 in
10:00 69.0 °F 64.6 °F 30.04 in Calm     86 % 0.00 in
10:01 69.0 °F 64.6 °F 30.04 in Calm     86 % 0.00 in
10:06 69.0 °F 64.6 °F 30.04 in Calm     86 % 0.00 in
10:11 69.2 °F 65.2 °F 30.04 in Calm     87 % 0.00 in
10:16 69.3 °F 65.3 °F 30.03 in Calm     87 % 0.00 in
10:21 69.4 °F 65.7 °F 30.03 in Calm     88 % 0.00 in
10:26 69.5 °F 65.8 °F 30.03 in Calm     88 % 0.00 in
10:31 69.6 °F 65.6 °F 30.04 in Calm     87 % 0.00 in
10:37 69.8 °F 65.8 °F 30.03 in Calm     87 % 0.00 in
10:42 69.9 °F 65.9 °F 30.04 in Calm     87 % 0.00 in
10:47 70.1 °F 66.0 °F 30.03 in Calm     87 % 0.00 in
10:52 70.2 °F 66.1 °F 30.03 in Calm     87 % 0.00 in
10:57 70.4 °F 66.3 °F 30.03 in Calm     87 % 0.00 in
11:02 70.6 °F 66.5 °F 30.03 in Calm     87 % 0.00 in
11:07 70.8 °F 66.4 °F 30.03 in Calm     86 % 0.00 in
11:12 71.0 °F 66.3 °F 30.04 in Calm     85 % 0.00 in
11:17 71.2 °F 66.5 °F 30.03 in Calm     85 % 0.00 in
11:22 71.3 °F 66.2 °F 30.04 in Calm     84 % 0.00 in
11:27 71.5 °F 66.4 °F 30.04 in SW 0.5 mph 2.3 mph 84 % 0.00 in
11:32 71.5 °F 66.4 °F 30.05 in SW 0.1 mph 2.3 mph 84 % 0.00 in
11:37 71.6 °F 66.5 °F 30.05 in SW 1.2 mph 3.5 mph 84 % 0.00 in
11:42 71.7 °F 66.6 °F 30.05 in SSW 3.8 mph 8.1 mph 84 % 0.00 in
11:47 71.7 °F 66.6 °F 30.05 in WSW 1.6 mph 3.5 mph 84 % 0.00 in
11:52 71.6 °F 66.8 °F 30.05 in West 1.3 mph 2.3 mph 85 % 0.00 in
11:57 71.5 °F 67.1 °F 30.04 in WNW 1.2 mph 3.5 mph 86 % 0.00 in
12:02 71.4 °F 67.3 °F 30.04 in WNW 0.1 mph 1.2 mph 87 % 0.00 in
12:07 71.2 °F 67.5 °F 30.04 in Calm   1.2 mph 88 % 0.00 in
12:12 71.1 °F 67.4 °F 30.04 in WNW 0.8 mph 3.5 mph 88 % 0.00 in
12:17 71.0 °F 67.3 °F 30.04 in WNW 0.7 mph 2.3 mph 88 % 0.00 in
12:22 70.9 °F 67.5 °F 30.04 in NW 0.6 mph 2.3 mph 89 % 0.00 in
12:27 70.7 °F 67.3 °F 30.04 in NNW 0.1 mph 2.3 mph 89 % 0.00 in
12:32 70.6 °F 67.2 °F 30.04 in NNW 0.1 mph 1.2 mph 89 % 0.00 in
12:37 70.5 °F 67.1 °F 30.04 in Calm   2.3 mph 89 % 0.00 in
12:42 70.3 °F 66.9 °F 30.04 in Calm     89 % 0.00 in
12:47 70.1 °F 66.7 °F 30.04 in North 3.9 mph 4.6 mph 89 % 0.00 in
12:52 69.8 °F 66.4 °F 30.04 in North 2.4 mph 5.8 mph 89 % 0.01 in
12:57 69.5 °F 66.4 °F 30.03 in NNE 2.4 mph 3.5 mph 90 % 0.01 in
13:02 69.2 °F 66.1 °F 30.03 in NNE 1.7 mph 3.5 mph 90 % 0.01 in
13:07 69.0 °F 65.9 °F 30.03 in North 0.1 mph 1.2 mph 90 % 0.01 in
13:12 68.9 °F 65.8 °F 30.03 in North 0.4 mph 1.2 mph 90 % 0.01 in
13:17 68.8 °F 66.1 °F 30.03 in SSE 0.6 mph 3.5 mph 91 % 0.01 in
13:22 68.7 °F 66.0 °F 30.03 in Calm     91 % 0.01 in
13:27 68.6 °F 65.9 °F 30.03 in SE 0.4 mph 3.5 mph 91 % 0.01 in
13:33 68.5 °F 65.8 °F 30.03 in Calm     91 % 0.01 in
13:43 68.5 °F 66.4 °F 30.03 in Calm     93 % 0.01 in
13:48 68.4 °F 66.3 °F 30.02 in Calm   2.3 mph 93 % 0.01 in
13:53 68.3 °F 65.9 °F 30.02 in Calm     92 % 0.00 in
13:58 68.3 °F 66.2 °F 30.02 in ENE 0.4 mph 2.3 mph 93 % 0.00 in
14:03 68.3 °F 66.2 °F 30.02 in NE 0.7 mph 1.2 mph 93 % 0.00 in
14:08 68.2 °F 66.1 °F 30.02 in Calm     93 % 0.00 in
14:13 68.1 °F 66.0 °F 30.02 in Calm     93 % 0.00 in
14:18 68.1 °F 66.0 °F 30.01 in Calm     93 % 0.00 in
14:23 68.0 °F 65.9 °F 30.01 in NE 0.2 mph 1.0 mph 93 % 0.00 in
14:28 68.0 °F 65.9 °F 30.01 in NE 1.2 mph 3.5 mph 93 % 0.00 in
14:33 67.9 °F 65.8 °F 30.00 in Calm   3.5 mph 93 % 0.00 in
14:38 67.9 °F 65.8 °F 30.00 in ENE 0.2 mph 1.2 mph 93 % 0.00 in
14:48 67.9 °F 66.1 °F 30.00 in Calm     94 % 0.00 in
14:53 67.9 °F 66.1 °F 30.00 in Calm     94 % 0.00 in
14:59 67.9 °F 66.1 °F 30.00 in Calm     94 % 0.00 in
15:04 67.9 °F 66.1 °F 30.00 in Calm     94 % 0.00 in
15:09 67.9 °F 66.1 °F 30.00 in Calm     94 % 0.00 in
15:14 67.9 °F 66.1 °F 30.00 in Calm     94 % 0.00 in
15:19 68.0 °F 66.5 °F 29.99 in Calm     95 % 0.00 in
15:24 68.1 °F 66.6 °F 29.99 in Calm   1.0 mph 95 % 0.00 in
15:29 68.0 °F 66.5 °F 29.99 in Calm     95 % 0.00 in
15:34 67.9 °F 66.4 °F 30.00 in ENE 0.1 mph 1.2 mph 95 % 0.00 in
15:39 67.9 °F 66.4 °F 30.00 in Calm     95 % 0.00 in
15:44 67.9 °F 66.4 °F 29.99 in Calm     95 % 0.00 in
15:49 67.8 °F 66.3 °F 29.99 in Calm     95 % 0.00 in
15:54 67.8 °F 66.3 °F 29.99 in Calm     95 % 0.00 in
15:59 67.8 °F 66.3 °F 29.99 in ENE 0.2 mph 1.2 mph 95 % 0.00 in
16:04 67.8 °F 66.3 °F 29.99 in Calm     95 % 0.00 in
16:09 67.8 °F 66.3 °F 29.98 in Calm     95 % 0.00 in
16:14 67.8 °F 66.3 °F 29.98 in Calm     95 % 0.00 in
16:19 67.8 °F 66.3 °F 29.98 in Calm   1.2 mph 95 % 0.00 in
16:24 67.9 °F 66.4 °F 29.98 in Calm     95 % 0.00 in
16:29 67.8 °F 66.3 °F 29.98 in SE 0.4 mph 4.0 mph 95 % 0.00 in
16:34 67.7 °F 66.2 °F 29.97 in Calm     95 % 0.00 in
16:39 67.6 °F 66.1 °F 29.97 in SE 0.6 mph 3.0 mph 95 % 0.00 in
16:44 67.6 °F 66.1 °F 29.97 in SE 0.6 mph 2.3 mph 95 % 0.00 in
16:49 67.5 °F 66.0 °F 29.96 in SE 0.1 mph 1.2 mph 95 % 0.00 in
16:54 67.4 °F 65.9 °F 29.96 in SE 0.4 mph 3.5 mph 95 % 0.00 in
16:59 67.3 °F 65.8 °F 29.95 in Calm   1.2 mph 95 % 0.00 in
17:04 67.2 °F 65.4 °F 29.95 in Calm   2.3 mph 94 % 0.00 in
17:09 67.2 °F 65.7 °F 29.94 in Calm     95 % 0.00 in
17:14 67.1 °F 65.6 °F 29.94 in Calm     95 % 0.00 in
17:19 67.1 °F 65.6 °F 29.94 in Calm     95 % 0.00 in
17:24 67.0 °F 65.5 °F 29.94 in Calm     95 % 0.00 in
17:29 67.0 °F 65.5 °F 29.93 in Calm     95 % 0.00 in
17:34 67.0 °F 65.5 °F 29.93 in Calm   1.2 mph 95 % 0.00 in
17:39 67.0 °F 65.5 °F 29.93 in Calm     95 % 0.00 in
17:44 67.0 °F 65.5 °F 29.93 in Calm     95 % 0.00 in
17:49 67.1 °F 65.6 °F 29.93 in Calm     95 % 0.00 in
17:54 67.0 °F 65.5 °F 29.92 in Calm     95 % 0.00 in
18:04 66.8 °F 65.3 °F 29.92 in SE 0.3 mph 1.2 mph 95 % 0.00 in
18:10 66.8 °F 65.3 °F 29.91 in SE 0.1 mph 1.2 mph 95 % 0.00 in
18:15 66.7 °F 65.2 °F 29.91 in Calm   1.2 mph 95 % 0.00 in
18:20 66.7 °F 65.2 °F 29.91 in Calm     95 % 0.00 in
18:25 66.7 °F 65.2 °F 29.91 in Calm     95 % 0.00 in
18:30 66.7 °F 65.2 °F 29.91 in SE 0.4 mph 2.3 mph 95 % 0.00 in
18:35 66.7 °F 65.2 °F 29.92 in Calm     95 % 0.00 in
18:40 66.6 °F 65.1 °F 29.92 in Calm     95 % 0.00 in
18:45 66.7 °F 65.2 °F 29.93 in SE 0.2 mph 1.2 mph 95 % 0.00 in
18:50 66.7 °F 65.2 °F 29.92 in Calm   1.0 mph 95 % 0.00 in
18:55 66.6 °F 65.1 °F 29.92 in SE 0.1 mph 1.2 mph 95 % 0.00 in
19:00 66.7 °F 65.2 °F 29.92 in SE 0.2 mph 2.3 mph 95 % 0.00 in
19:05 66.7 °F 65.2 °F 29.93 in Calm     95 % 0.00 in
19:10 66.6 °F 65.1 °F 29.93 in Calm     95 % 0.00 in
19:15 66.6 °F 65.1 °F 29.93 in Calm     95 % 0.00 in
19:20 66.6 °F 65.1 °F 29.93 in Calm     95 % 0.00 in
19:25 66.5 °F 65.0 °F 29.92 in Calm     95 % 0.00 in
19:30 66.4 °F 64.9 °F 29.92 in Calm     95 % 0.00 in
19:33 66.4 °F 64.9 °F 29.92 in Calm     95 % 0.00 in
19:38 66.3 °F 64.8 °F 29.91 in SE 0.1 mph 1.2 mph 95 % 0.00 in
19:43 66.1 °F 64.6 °F 29.91 in SE 1.7 mph 3.5 mph 95 % 0.00 in
19:48 66.0 °F 64.5 °F 29.91 in Calm     95 % 0.00 in
19:53 65.9 °F 64.4 °F 29.91 in Calm     95 % 0.00 in
19:58 65.9 °F 64.4 °F 29.90 in Calm     95 % 0.00 in
20:03 65.8 °F 64.3 °F 29.90 in Calm     95 % 0.00 in
20:08 65.7 °F 64.2 °F 29.90 in Calm     95 % 0.00 in
20:14 65.6 °F 64.1 °F 29.90 in Calm     95 % 0.00 in
20:19 65.5 °F 64.0 °F 29.90 in Calm     95 % 0.00 in
20:24 65.4 °F 63.9 °F 29.90 in Calm   1.2 mph 95 % 0.00 in
20:29 65.3 °F 63.8 °F 29.89 in Calm     95 % 0.00 in
20:34 65.2 °F 63.7 °F 29.89 in SE 0.3 mph 2.0 mph 95 % 0.00 in
20:36 65.1 °F 63.6 °F 29.89 in SE 0.3 mph 2.0 mph 95 % 0.00 in
20:41 65.0 °F 63.5 °F 29.89 in Calm   1.2 mph 95 % 0.00 in
20:46 64.9 °F 63.4 °F 29.88 in Calm   2.3 mph 95 % 0.00 in
20:51 64.9 °F 63.4 °F 29.88 in Calm   2.3 mph 95 % 0.00 in
20:56 64.8 °F 63.3 °F 29.88 in Calm   1.2 mph 95 % 0.00 in
21:01 64.8 °F 63.3 °F 29.88 in Calm     95 % 0.00 in
21:06 64.8 °F 63.3 °F 29.88 in Calm     95 % 0.00 in
21:11 64.7 °F 63.2 °F 29.88 in Calm     95 % 0.00 in
21:16 64.7 °F 63.2 °F 29.88 in Calm   1.2 mph 95 % 0.00 in
21:21 64.7 °F 63.2 °F 29.88 in SE 0.1 mph 1.0 mph 95 % 0.00 in
21:26 64.7 °F 63.2 °F 29.88 in Calm     95 % 0.00 in
21:31 64.6 °F 63.4 °F 29.88 in Calm     96 % 0.00 in
21:36 64.6 °F 63.4 °F 29.88 in Calm   1.2 mph 96 % 0.00 in
21:41 64.7 °F 63.5 °F 29.88 in Calm   1.2 mph 96 % 0.00 in
21:46 64.7 °F 63.5 °F 29.88 in Calm     96 % 0.00 in
21:52 64.7 °F 63.5 °F 29.88 in Calm     96 % 0.00 in
21:57 64.7 °F 63.5 °F 29.88 in Calm     96 % 0.00 in
22:02 64.8 °F 63.6 °F 29.88 in Calm     96 % 0.00 in
22:07 64.9 °F 63.7 °F 29.87 in Calm     96 % 0.00 in
22:12 64.9 °F 63.7 °F 29.87 in Calm   1.2 mph 96 % 0.00 in
22:17 65.0 °F 63.8 °F 29.87 in Calm     96 % 0.00 in
22:22 65.1 °F 63.9 °F 29.87 in Calm     96 % 0.00 in
22:27 65.1 °F 64.2 °F 29.87 in Calm   1.2 mph 97 % 0.00 in
22:32 65.2 °F 64.3 °F 29.87 in SE 0.5 mph 1.2 mph 97 % 0.00 in
22:37 65.3 °F 64.4 °F 29.87 in Calm   1.2 mph 97 % 0.00 in
22:42 65.4 °F 64.5 °F 29.87 in NE 1.2 mph 1.2 mph 97 % 0.00 in
22:47 65.4 °F 64.5 °F 29.88 in NE 0.1 mph 1.0 mph 97 % 0.00 in
22:52 65.5 °F 64.6 °F 29.88 in NE 0.8 mph 1.2 mph 97 % 0.00 in
22:57 65.5 °F 64.6 °F 29.87 in NE 0.2 mph 2.3 mph 97 % 0.00 in
23:03 65.6 °F 64.7 °F 29.87 in Calm   1.2 mph 97 % 0.00 in
23:08 65.6 °F 64.7 °F 29.87 in Calm     97 % 0.00 in
23:14 65.6 °F 64.7 °F 29.87 in Calm     97 % 0.00 in
23:19 65.6 °F 64.7 °F 29.87 in ENE 0.1 mph 2.3 mph 97 % 0.00 in
23:22 65.6 °F 64.7 °F 29.87 in ENE 0.5 mph 2.3 mph 97 % 0.00 in
23:24 65.6 °F 64.7 °F 29.86 in Calm   1.2 mph 97 % 0.00 in
23:27 65.7 °F 64.8 °F 29.87 in Calm   1.2 mph 97 % 0.00 in
23:28 65.7 °F 64.8 °F 29.87 in Calm     97 % 0.00 in
23:32 65.7 °F 64.8 °F 29.86 in Calm     97 % 0.00 in
23:38 65.7 °F 64.8 °F 29.86 in Calm   1.2 mph 97 % 0.00 in
23:43 65.7 °F 64.8 °F 29.86 in Calm     97 % 0.00 in
23:48 65.7 °F 64.8 °F 29.86 in Calm     97 % 0.00 in
23:53 65.8 °F 64.9 °F 29.86 in Calm     97 % 0.00 in
23:58 65.8 °F 64.9 °F 29.85 in Calm     97 % 0.00 in
Crab Meadow Weather
Compliments of Weather Underground - 3 mb

Script developed by  Jim McMurry - jmcmurry@mwt.net Adapted for the template by  Wim van der Kuil - Leuven-Template.eu

Heat Index: The heat index combines air temperature and dew point in an attempt to determine the human-perceived equivalent temperature - how hot it feels. The human body normally cools itself by sweating, which evaporates and carries heat away from the body. However, when the relative humidity is high the evaporation rate is reduced, so heat is removed from the body at a lower rate causing it to retain more heat than it would in dry air.